KRAUCHNWS Weather Reports


time (UTC)temp
C
wind
direction
speed
KPH
gust
KPH
rain 1hr
cm
rain 24hr
cm
rain mn
cm
humidity
%
barometer
mb
20260507180210 12 13 11.3 0.0 0.00 0.00 0.23 71 1014.1
20260507173210 13 0 12.9 0.0 0.00 0.00 0.23 66 1013.9
20260507170210 14 38 8.0 0.0 0.00 0.00 0.23 64 1013.9
20260507163209 14 5 6.4 0.0 0.00 0.00 0.23 66 1013.8
20260507160211 13 287 8.0 0.0 0.00 0.00 0.23 68 1013.7
20260507153210 13 350 6.4 0.0 0.00 0.00 0.23 70 1013.9
20260507150210 13 5 12.9 0.0 0.00 0.00 0.23 67 1013.9
20260507143212 13 273 17.7 0.0 0.00 0.00 0.23 70 1013.7
20260507140210 13 284 11.3 0.0 0.00 0.00 0.23 78 1013.9
20260507133210 11 236 9.7 0.0 0.00 0.00 0.23 85 1014.1
20260507130210 10 296 9.7 0.0 0.00 0.00 0.23 87 1014.2
20260507123210 11 319 8.0 0.0 0.00 0.00 0.23 88 1014.0
20260507120211 10 317 6.4 0.0 0.00 0.00 0.23 93 1014.0
20260507113210 10 252 20.9 0.0 0.00 0.00 0.15 90 1013.9
20260507110210 10 227 11.3 0.0 0.00 0.00 0.15 88 1013.8
20260507103216 9 168 14.5 0.0 0.00 0.00 0.15 92 1013.9
20260507100212 9 150 9.7 0.0 0.00 0.00 0.13 92 1013.6
20260507093211 10 206 12.9 0.0 0.00 0.00 0.10 88 1013.4
20260507090211 10 221 22.5 0.0 0.00 0.00 0.10 87 1013.1
20260507083212 9 188 14.5 0.0 0.00 0.00 0.10 91 1013.1
20260507080211 9 169 14.5 0.0 0.00 0.00 0.10 92 1013.0
20260507073212 8 261 14.5 0.0 0.00 0.00 0.10 94 1012.7
20260507070212 8 215 12.9 0.0 0.00 0.00 0.08 95 1012.7
20260507063211 7 227 19.3 0.0 0.00 0.00 0.08 95 1012.5
20260507060211 7 215 11.3 0.0 0.00 0.00 0.05 95 1012.3
20260507053211 7 194 14.5 0.0 0.00 0.00 0.05 95 1012.0
20260507050213 7 236 19.3 0.0 0.00 0.00 0.03 95 1011.6
20260507043211 7 274 16.1 0.0 0.00 0.00 0.00 94 1011.2
20260507040216 7 207 16.1 0.0 0.00 0.00 0.00 94 1011.1
20260507033211 7 225 12.9 0.0 0.00 0.00 0.00 94 1010.9
20260507030211 6 251 11.3 0.0 0.00 0.00 0.00 95 1010.8
20260507023211 6 244 11.3 0.0 0.00 0.00 0.00 95 1010.6
20260507020211 6 215 14.5 0.0 0.00 0.00 0.00 95 1010.5
20260507013212 6 202 20.9 0.0 0.00 0.00 0.00 95 1010.1
20260507010211 6 192 14.5 0.0 0.00 0.00 0.00 95 1010.3
20260507003209 6 165 17.7 0.0 0.00 0.00 0.00 95 1009.8
20260507000209 6 209 9.7 0.0 0.00 0.00 0.00 94 1009.7
20260506233209 6 190 9.7 0.0 0.00 0.00 0.00 93 1009.8
20260506230209 7 255 14.5 0.0 0.00 0.00 0.00 93 1009.7
20260506223209 7 229 11.3 0.0 0.00 0.00 0.00 94 1009.6
20260506213209 7 231 11.3 0.0 0.00 0.00 0.23 93 1009.4
20260506210210 7 229 12.9 0.0 0.00 0.00 0.23 93 1009.3
20260506203210 7 181 8.0 0.0 0.00 0.00 0.23 93 1009.1
20260506200210 7 255 19.3 0.0 0.00 0.00 0.23 93 1008.9
20260506193215 7 246 16.1 0.0 0.00 0.00 0.23 93 1008.7
20260506190211 8 188 19.3 0.0 0.00 0.00 0.23 92 1008.2
20260506183209 8 200 19.3 0.0 0.00 0.00 0.23 91 1007.9